Cleveland Burke, OH

2:45 PM EST on December 14, 2017 (GMT -0500)
Burke Lakefront

Weather History for KBKL - April, 2013

Change the Weather History Date:

Monday, April 8, 2013

  Actual Average Record
Temperature  
Mean Temperature 56 °F -  
Max Temperature 72 °F 52 °F 75 °F (2001)
Min Temperature 39 °F 38 °F 27 °F (2007)
Degree Days  
Heating Degree Days 10    
Growing Degree Days 6 (Base 50)    
Moisture  
Dew Point 43 °F    
Average Humidity 61    
Maximum Humidity 83    
Minimum Humidity 41    
Precipitation  
Precipitation 0.11 in - - ()
Sea Level Pressure  
Sea Level Pressure 29.92 in    
Wind  
Wind Speed 10 mph (South)    
Max Wind Speed 24 mph    
Max Gust Speed 37 mph    
Visibility 9 miles    
Events Rain , Thunderstorm    
Averages and records for this station are not official NWS values.
T = Trace of Precipitation, MM = Missing Value Source: NWS Daily Summary

Daily Weather History Graph

Daily Weather History Graph

Search for Another Location

Airport or City:

Trip Planner

Search our weather history database for the weather conditions in past years. The results will help you decide how hot, cold, wet, or windy it might be!

Date:

Astronomy

Apr. 08, 2013 Rise Set
Actual Time 6:57 AM EDT 7:59 PM EDT
Civil Twilight 6:29 AM EDT 8:28 PM EDT
Nautical Twilight 5:55 AM EDT 9:02 PM EDT
Astronomical Twilight 5:20 AM EDT 9:37 PM EDT
Moon 5:48 AM EDT (4/8) 6:32 PM EDT (4/8)
Length of Visible Light 13h 58m
Length of Day
13h 02m
Waning Crescent, 3% of the Moon is Illuminated
Apr 8
Waning Crescent
Apr 10
New
Apr 18
First Quarter
Apr 25
Full
May 2
Last Quarter

Hourly Weather History & Observations

Time (EDT) Temp. Windchill Dew Point Humidity Pressure Visibility Wind Dir Wind Speed Gust Speed Precip Events Conditions
12:53 AM 44.1 °F 40.8 °F 35.1 °F 71% 30.04 in 10.0 mi East 5.8 mph - N/A   Clear
1:53 AM 44.1 °F 42.5 °F 34.0 °F 68% 30.05 in 10.0 mi East 3.5 mph - N/A   Clear
2:53 AM 43.0 °F 39.5 °F 34.0 °F 71% 30.04 in 10.0 mi East 5.8 mph - N/A   Clear
3:53 AM 42.1 °F 40.2 °F 34.0 °F 73% 30.04 in 10.0 mi ESE 3.5 mph - N/A   Clear
4:53 AM 39.9 °F 36.7 °F 34.0 °F 79% 30.03 in 10.0 mi NE 4.6 mph - N/A   Clear
5:53 AM 42.1 °F 40.2 °F 34.0 °F 73% 30.00 in 10.0 mi East 3.5 mph - N/A   Clear
6:53 AM 42.1 °F 40.2 °F 34.0 °F 73% 30.00 in 10.0 mi ENE 3.5 mph - N/A   Clear
7:53 AM 43.0 °F 38.2 °F 35.1 °F 74% 30.01 in 9.0 mi SE 8.1 mph - N/A   Clear
8:53 AM 50.0 °F - 37.9 °F 63% 29.99 in 10.0 mi SE 8.1 mph - N/A   Partly Cloudy
9:53 AM 55.0 °F - 39.0 °F 55% 29.96 in 10.0 mi SSE 18.4 mph 26.5 mph N/A   Clear
10:53 AM 59.0 °F - 41.0 °F 51% 29.94 in 10.0 mi South 11.5 mph 19.6 mph N/A   Overcast
11:53 AM 60.1 °F - 44.1 °F 55% 29.92 in 10.0 mi SSE 13.8 mph - N/A   Mostly Cloudy
12:53 PM 64.9 °F - 46.0 °F 50% 29.88 in 10.0 mi South 17.3 mph 24.2 mph N/A   Mostly Cloudy
1:53 PM 68.0 °F - 46.9 °F 47% 29.85 in 10.0 mi South 12.7 mph 23.0 mph N/A   Overcast
2:53 PM 70.0 °F - 46.9 °F 44% 29.82 in 10.0 mi SSW 16.1 mph 24.2 mph N/A   Overcast
3:53 PM 72.0 °F - 46.9 °F 41% 29.80 in 9.0 mi SSW 13.8 mph 24.2 mph N/A   Mostly Cloudy
4:53 PM 71.1 °F - 48.9 °F 45% 29.78 in 10.0 mi SSW 23.0 mph 36.8 mph 0.00 in   Mostly Cloudy
5:53 PM 71.1 °F - 48.9 °F 45% 29.79 in 10.0 mi SSW 20.7 mph 33.4 mph N/A   Mostly Cloudy
6:53 PM 71.1 °F - 50.0 °F 47% 29.79 in 10.0 mi SSW 20.7 mph 28.8 mph N/A   Overcast
7:53 PM 70.0 °F - 50.0 °F 49% 29.79 in 10.0 mi SSW 15.0 mph 25.3 mph N/A   Overcast
8:53 PM 68.0 °F - 50.0 °F 52% 29.82 in 10.0 mi SSW 15.0 mph 25.3 mph N/A   Overcast
9:53 PM 69.1 °F - 51.1 °F 53% 29.85 in 10.0 mi SSW 17.3 mph - N/A   Mostly Cloudy
10:44 PM 66.2 °F - 51.8 °F 60% 29.88 in 10.0 mi SW 16.1 mph - 0.00 in Rain , Thunderstorm Light Thunderstorms and Rain
10:53 PM 64.9 °F - 52.0 °F 63% 29.88 in 10.0 mi WSW 11.5 mph - 0.00 in Rain , Thunderstorm Light Thunderstorms and Rain
11:15 PM 57.2 °F - 48.2 °F 72% 29.91 in 2.0 mi West 24.2 mph 33.4 mph 0.11 in Thunderstorm Unknown
11:23 PM 53.6 °F - 48.2 °F 82% 29.91 in 1.8 mi West 18.4 mph 33.4 mph 0.11 in Thunderstorm Mostly Cloudy
11:30 PM 51.8 °F - 46.4 °F 82% 29.92 in 10.0 mi West 13.8 mph - 0.11 in Thunderstorm Thunderstorm
11:53 PM 52.0 °F - 46.9 °F 83% 29.93 in 10.0 mi WSW 16.1 mph - 0.11 in Thunderstorm Thunderstorm